| time (UTC) | temp F | wind direction | speed MPH | gust MPH | rain 1hr in | rain 24hr in | rain mn in | humidity % | barometer mb |
| 20260509130021 | 57 | 248 | 7.0 | 12.0 | 0.00 | 0.20 | 0.01 | 92 | 978.6 |
| 20260509124507 | 56 | 221 | 4.0 | 9.0 | 0.00 | 0.20 | 0.01 | 93 | 978.5 |
| 20260509123006 | 56 | 239 | 3.0 | 7.0 | 0.00 | 0.20 | 0.01 | 94 | 978.7 |
| 20260509121506 | 56 | 238 | 2.0 | 4.0 | 0.00 | 0.20 | 0.01 | 95 | 978.8 |
| 20260509120059 | 55 | 233 | 2.0 | 6.0 | 0.00 | 0.20 | 0.01 | 97 | 978.8 |
| 20260509114556 | 53 | 238 | 1.0 | 4.0 | 0.00 | 0.21 | 0.01 | 98 | 978.7 |
| 20260509113058 | 53 | 238 | 0.0 | 3.0 | 0.00 | 0.21 | 0.01 | 97 | 978.5 |
| 20260509111603 | 53 | 243 | 1.0 | 3.0 | 0.00 | 0.21 | 0.01 | 98 | 978.2 |
| 20260509110055 | 52 | 233 | 0.0 | 2.0 | 0.00 | 0.21 | 0.01 | 98 | 978.1 |
| 20260509104554 | 53 | 233 | 0.0 | 3.0 | 0.00 | 0.23 | 0.01 | 98 | 977.9 |
| 20260509103154 | 53 | 229 | 1.0 | 5.0 | 0.00 | 0.23 | 0.01 | 98 | 977.9 |
| 20260509101553 | 53 | 224 | 2.0 | 6.0 | 0.00 | 0.23 | 0.01 | 98 | 978.0 |
| 20260509100052 | 53 | 248 | 4.0 | 7.0 | 0.00 | 0.23 | 0.01 | 99 | 978.3 |
| 20260509094552 | 53 | 231 | 4.0 | 9.0 | 0.00 | 0.24 | 0.01 | 99 | 978.2 |
| 20260509093050 | 53 | 229 | 3.0 | 9.0 | 0.00 | 0.24 | 0.01 | 99 | 978.1 |
| 20260509091549 | 53 | 243 | 1.0 | 5.0 | 0.00 | 0.24 | 0.01 | 99 | 978.3 |
| 20260509084546 | 51 | 226 | 0.0 | 2.0 | 0.01 | 0.24 | 0.01 | 99 | 978.2 |
| 20260509083051 | 52 | 233 | 0.0 | 3.0 | 0.01 | 0.24 | 0.01 | 99 | 978.1 |
| 20260509081544 | 52 | 232 | 0.0 | 7.0 | 0.01 | 0.24 | 0.01 | 99 | 978.3 |
| 20260509080047 | 52 | 216 | 0.0 | 3.0 | 0.01 | 0.24 | 0.01 | 99 | 978.3 |
| 20260509074543 | 52 | 219 | 0.0 | 3.0 | 0.00 | 0.23 | 0.00 | 99 | 978.2 |
| 20260509073045 | 52 | 224 | 0.0 | 2.0 | 0.00 | 0.23 | 0.00 | 99 | 978.5 |
| 20260509071540 | 52 | 224 | 0.0 | 2.0 | 0.00 | 0.23 | 0.00 | 99 | 978.7 |
| 20260509070038 | 52 | 214 | 0.0 | 3.0 | 0.00 | 0.23 | 0.00 | 99 | 978.9 |
| 20260509064539 | 52 | 239 | 0.0 | 4.0 | 0.00 | 0.23 | 0.00 | 99 | 979.2 |
| 20260509063035 | 52 | 241 | 0.0 | 5.0 | 0.00 | 0.23 | 0.00 | 99 | 979.3 |
| 20260509061540 | 52 | 238 | 0.0 | 3.0 | 0.00 | 0.23 | 0.00 | 98 | 979.2 |
| 20260509060037 | 51 | 243 | 0.0 | 2.0 | 0.00 | 0.23 | 0.00 | 98 | 979.6 |
| 20260509054530 | 51 | 184 | 0.0 | 1.0 | 0.00 | 0.23 | 0.00 | 98 | 979.6 |
| 20260509053042 | 51 | 229 | 0.0 | 2.0 | 0.00 | 0.23 | 0.00 | 98 | 979.6 |
| 20260509051528 | 52 | 244 | 0.0 | 1.0 | 0.00 | 0.23 | 0.00 | 98 | 979.5 |
| 20260509050029 | 52 | 228 | 0.0 | 2.0 | 0.00 | 0.23 | 0.00 | 98 | 979.5 |
| 20260509044525 | 52 | 223 | 0.0 | 1.0 | 0.00 | 0.23 | 0.00 | 97 | 979.5 |
| 20260509043023 | 52 | 222 | 0.0 | 1.0 | 0.00 | 0.23 | 0.00 | 97 | 979.6 |
| 20260509041534 | 53 | 222 | 0.0 | 3.0 | 0.00 | 0.23 | 0.00 | 97 | 979.6 |
| 20260509040020 | 53 | 225 | 0.0 | 1.0 | 0.00 | 0.23 | 0.00 | 97 | 979.8 |
| 20260509034520 | 53 | 225 | 0.0 | 1.0 | 0.00 | 0.23 | 0.23 | 97 | 979.8 |
| 20260509033019 | 53 | 225 | 0.0 | 0.0 | 0.00 | 0.23 | 0.23 | 97 | 979.9 |
| 20260509031518 | 53 | 225 | 0.0 | 1.0 | 0.00 | 0.23 | 0.23 | 96 | 979.9 |
| 20260509030018 | 54 | 225 | 0.0 | 4.0 | 0.00 | 0.23 | 0.23 | 96 | 979.9 |
| 20260509024517 | 54 | 252 | 0.0 | 2.0 | 0.00 | 0.23 | 0.23 | 96 | 980.0 |
| 20260509023018 | 54 | 240 | 0.0 | 3.0 | 0.00 | 0.23 | 0.23 | 96 | 980.0 |
| 20260509021517 | 54 | 242 | 1.0 | 4.0 | 0.00 | 0.23 | 0.23 | 96 | 980.0 |
| 20260509020015 | 54 | 232 | 0.0 | 5.0 | 0.00 | 0.23 | 0.23 | 95 | 979.9 |
| 20260509014514 | 55 | 217 | 2.0 | 6.0 | 0.00 | 0.23 | 0.23 | 95 | 979.8 |
| 20260509013014 | 54 | 238 | 2.0 | 5.0 | 0.00 | 0.23 | 0.23 | 95 | 980.0 |
| 20260509011516 | 54 | 224 | 0.0 | 5.0 | 0.00 | 0.23 | 0.23 | 95 | 980.0 |
| 20260509010033 | 55 | 212 | 1.0 | 3.0 | 0.00 | 0.23 | 0.23 | 94 | 979.9 |
| 20260509004523 | 55 | 224 | 0.0 | 2.0 | 0.00 | 0.23 | 0.23 | 93 | 979.9 |
| 20260509003011 | 55 | 238 | 1.0 | 4.0 | 0.00 | 0.23 | 0.23 | 93 | 980.0 |
| 20260509001514 | 55 | 224 | 0.0 | 3.0 | 0.00 | 0.23 | 0.23 | 92 | 980.1 |
| 20260509000010 | 56 | 203 | 1.0 | 5.0 | 0.00 | 0.23 | 0.23 | 91 | 980.2 |
| 20260508234520 | 56 | 238 | 2.0 | 5.0 | 0.00 | 0.23 | 0.23 | 91 | 980.1 |
| 20260508233013 | 56 | 244 | 2.0 | 5.0 | 0.00 | 0.23 | 0.23 | 91 | 980.2 |
| 20260508231509 | 56 | 148 | 0.0 | 4.0 | 0.00 | 0.23 | 0.23 | 92 | 980.3 |
| 20260508230006 | 56 | 227 | 0.0 | 5.0 | 0.00 | 0.23 | 0.23 | 92 | 980.2 |
| 20260508224506 | 57 | 264 | 0.0 | 5.0 | 0.00 | 0.23 | 0.23 | 91 | 980.2 |
| 20260508223006 | 57 | 218 | 2.0 | 6.0 | 0.00 | 0.23 | 0.23 | 91 | 980.2 |
| 20260508221509 | 57 | 240 | 4.0 | 9.0 | 0.00 | 0.23 | 0.23 | 92 | 980.3 |
| 20260508220003 | 57 | 237 | 2.0 | 7.0 | 0.00 | 0.26 | 0.23 | 93 | 980.5 |
| 20260508214502 | 56 | 229 | 1.0 | 5.0 | 0.00 | 0.26 | 0.23 | 94 | 980.3 |
| 20260508213005 | 56 | 219 | 0.0 | 6.0 | 0.00 | 0.26 | 0.23 | 94 | 980.1 |
| 20260508211559 | 56 | 224 | 1.0 | 7.0 | 0.01 | 0.26 | 0.23 | 93 | 980.4 |
| 20260508210106 | 56 | 233 | 2.0 | 8.0 | 0.02 | 0.26 | 0.23 | 93 | 980.6 |
| 20260508204556 | 56 | 129 | 4.0 | 10.0 | 0.06 | 0.26 | 0.23 | 93 | 980.8 |
| 20260508203102 | 56 | 224 | 1.0 | 6.0 | 0.07 | 0.26 | 0.23 | 94 | 980.8 |
| 20260508201554 | 56 | 231 | 0.0 | 4.0 | 0.08 | 0.25 | 0.22 | 94 | 981.2 |
| 20260508200057 | 56 | 236 | 2.0 | 5.0 | 0.08 | 0.23 | 0.20 | 94 | 981.3 |
| 20260508194551 | 56 | 235 | 3.0 | 6.0 | 0.07 | 0.20 | 0.17 | 94 | 981.5 |
| 20260508193053 | 56 | 260 | 3.0 | 7.0 | 0.09 | 0.19 | 0.16 | 94 | 981.5 |
| 20260508191554 | 56 | 263 | 6.0 | 10.0 | 0.09 | 0.17 | 0.14 | 93 | 981.8 |
| 20260508190050 | 57 | 306 | 5.0 | 10.0 | 0.08 | 0.15 | 0.12 | 89 | 981.7 |
| 20260508184546 | 58 | 270 | 3.0 | 7.0 | 0.06 | 0.13 | 0.10 | 88 | 981.8 |
| 20260508183045 | 59 | 243 | 7.0 | 12.0 | 0.03 | 0.10 | 0.07 | 82 | 981.6 |
| 20260508181544 | 60 | 258 | 8.0 | 13.0 | 0.01 | 0.08 | 0.05 | 78 | 981.6 |
| 20260508180042 | 63 | 261 | 11.0 | 17.0 | 0.00 | 0.07 | 0.04 | 70 | 981.6 |
| 20260508174542 | 64 | 247 | 13.0 | 21.0 | 0.00 | 0.07 | 0.04 | 67 | 981.8 |
| 20260508173040 | 65 | 220 | 10.0 | 19.0 | 0.00 | 0.07 | 0.04 | 64 | 981.8 |
| 20260508171537 | 64 | 126 | 3.0 | 8.0 | 0.00 | 0.07 | 0.04 | 68 | 981.9 |
| 20260508170033 | 63 | 183 | 2.0 | 7.0 | 0.00 | 0.07 | 0.04 | 71 | 982.3 |
| 20260508164534 | 60 | 250 | 1.0 | 6.0 | 0.00 | 0.07 | 0.04 | 72 | 982.7 |
| 20260508163026 | 59 | 222 | 3.0 | 8.0 | 0.00 | 0.07 | 0.04 | 70 | 983.2 |
| 20260508161524 | 59 | 242 | 6.0 | 10.0 | 0.00 | 0.07 | 0.04 | 71 | 983.4 |
| 20260508160030 | 60 | 245 | 4.0 | 9.0 | 0.00 | 0.07 | 0.04 | 70 | 983.4 |
| 20260508154519 | 59 | 228 | 3.0 | 10.0 | 0.00 | 0.07 | 0.04 | 72 | 983.5 |
| 20260508153019 | 59 | 259 | 6.0 | 11.0 | 0.00 | 0.07 | 0.04 | 70 | 983.5 |
| 20260508151517 | 59 | 226 | 6.0 | 12.0 | 0.00 | 0.07 | 0.04 | 69 | 983.5 |
| 20260508150013 | 57 | 243 | 3.0 | 10.0 | 0.00 | 0.07 | 0.04 | 72 | 983.8 |
| 20260508144509 | 56 | 228 | 5.0 | 11.0 | 0.00 | 0.07 | 0.04 | 72 | 983.9 |
| 20260508143007 | 56 | 219 | 5.0 | 8.0 | 0.00 | 0.07 | 0.04 | 75 | 984.0 |
| 20260508141504 | 55 | 222 | 6.0 | 12.0 | 0.00 | 0.07 | 0.04 | 75 | 983.9 |
| 20260508134600 | 52 | 226 | 2.0 | 9.0 | 0.00 | 0.07 | 0.04 | 80 | 984.3 |
| 20260508133107 | 52 | 241 | 4.0 | 8.0 | 0.00 | 0.07 | 0.04 | 79 | 984.3 |
| 20260508131601 | 53 | 238 | 3.0 | 9.0 | 0.00 | 0.07 | 0.04 | 77 | 984.2 |